AAL6431 KLAX-KSFO

Flight info

Callsign AAL6431
Flight time 0h 51m
Altitude 36000
Route SUMMR2 STOKD SERFR SERFR4
Aircraft A321/M-SDE3FGHIRWY/LB1

Departure

Time 2026-05-05 00:00
Airport Los Angeles International Airport (KLAX)

Arrival

Time 2026-05-05 00:52
Airport San Francisco International Airport (KSFO)
Time Latitude Longitude Altitude Speed Heading
2026-05-04 23:36 33.94112 -118.40380 126 ft 0 kts 268°
2026-05-04 23:49 33.94112 -118.40376 126 ft 3 kts 268°
2026-05-04 23:49 33.94112 -118.40365 121 ft 4 kts 263°
2026-05-04 23:49 33.94119 -118.40337 123 ft 4 kts 220°
2026-05-04 23:49 33.94141 -118.40327 123 ft 4 kts 176°
2026-05-04 23:50 33.94151 -118.40328 123 ft 1 kts 173°
2026-05-04 23:53 33.94148 -118.40328 122 ft 1 kts 173°
2026-05-04 23:53 33.94127 -118.40325 121 ft 6 kts 173°
2026-05-04 23:54 33.94070 -118.40317 124 ft 11 kts 173°
2026-05-04 23:54 33.93989 -118.40303 124 ft 12 kts 172°
2026-05-04 23:54 33.93909 -118.40292 123 ft 10 kts 173°
2026-05-04 23:54 33.93857 -118.40243 124 ft 10 kts 104°
2026-05-04 23:55 33.93864 -118.40153 126 ft 11 kts 83°
2026-05-04 23:55 33.93873 -118.40055 126 ft 12 kts 83°
2026-05-04 23:55 33.93895 -118.39837 124 ft 14 kts 83°
2026-05-04 23:56 33.93907 -118.39716 126 ft 15 kts 82°
2026-05-04 23:56 33.93921 -118.39587 126 ft 16 kts 83°
2026-05-04 23:56 33.93934 -118.39452 124 ft 17 kts 83°
2026-05-04 23:56 33.93949 -118.39312 126 ft 17 kts 83°
2026-05-04 23:57 33.93964 -118.39165 126 ft 18 kts 83°
2026-05-04 23:57 33.93979 -118.39012 126 ft 19 kts 83°
2026-05-04 23:57 33.93996 -118.38854 126 ft 19 kts 83°
2026-05-04 23:57 33.94012 -118.38691 120 ft 20 kts 83°
2026-05-04 23:58 33.94030 -118.38523 126 ft 20 kts 83°
2026-05-04 23:58 33.94047 -118.38353 126 ft 21 kts 83°
2026-05-04 23:58 33.94063 -118.38199 126 ft 18 kts 83°
2026-05-04 23:58 33.94075 -118.38078 125 ft 3 kts 83°
2026-05-04 23:59 33.94076 -118.38044 126 ft 5 kts 94°
2026-05-04 23:59 33.94057 -118.38007 121 ft 7 kts 145°
2026-05-04 23:59 33.93996 -118.38015 124 ft 11 kts 226°
2026-05-04 23:59 33.93973 -118.38146 126 ft 30 kts 263°
2026-05-05 00:00 33.93915 -118.38700 126 ft 102 kts 263°
2026-05-05 00:00 33.93883 -118.39018 122 ft 124 kts 263°
2026-05-05 00:00 33.93638 -118.41225 409 ft 183 kts 262°
2026-05-05 00:00 33.93463 -118.42816 851 ft 197 kts 263°
2026-05-05 00:01 33.93303 -118.44438 1650 ft 193 kts 263°
2026-05-05 00:01 33.93152 -118.46069 2154 ft 202 kts 264°
2026-05-05 00:01 33.93001 -118.47843 2282 ft 225 kts 264°
2026-05-05 00:01 33.92841 -118.49803 2618 ft 241 kts 264°
2026-05-05 00:02 33.92677 -118.51817 3102 ft 253 kts 264°
2026-05-05 00:02 33.92502 -118.53963 3781 ft 260 kts 264°
2026-05-05 00:02 33.92324 -118.56146 4561 ft 264 kts 264°
2026-05-05 00:02 33.92142 -118.58360 5343 ft 267 kts 264°
2026-05-05 00:03 33.91955 -118.60601 6122 ft 270 kts 264°
2026-05-05 00:03 33.91778 -118.62866 6885 ft 273 kts 268°
2026-05-05 00:03 33.91763 -118.65169 7634 ft 277 kts 270°
2026-05-05 00:03 33.91758 -118.67497 8383 ft 280 kts 270°
2026-05-05 00:04 33.91752 -118.69846 9117 ft 283 kts 270°
2026-05-05 00:04 33.91746 -118.72226 9839 ft 286 kts 270°
2026-05-05 00:04 33.91739 -118.73855 10245 ft 293 kts 270°
2026-05-05 00:04 33.91727 -118.76398 10439 ft 316 kts 269°
2026-05-05 00:05 33.91711 -118.79126 10736 ft 332 kts 269°
2026-05-05 00:05 33.91696 -118.81938 11338 ft 338 kts 270°
2026-05-05 00:05 33.91712 -118.85715 12203 ft 343 kts 271°
2026-05-05 00:05 33.91757 -118.87624 12643 ft 345 kts 272°
2026-05-05 00:06 33.91850 -118.90525 13288 ft 349 kts 272°
2026-05-05 00:06 33.91956 -118.93455 13925 ft 352 kts 272°
2026-05-05 00:06 33.92064 -118.96448 14558 ft 355 kts 272°
2026-05-05 00:06 33.92244 -118.99385 15158 ft 358 kts 279°
2026-05-05 00:07 33.92872 -119.02302 15758 ft 362 kts 290°
2026-05-05 00:07 33.93973 -119.05033 16367 ft 365 kts 301°
2026-05-05 00:07 33.95325 -119.07639 16944 ft 368 kts 302°
2026-05-05 00:07 33.96686 -119.10268 17522 ft 371 kts 302°
2026-05-05 00:08 33.98055 -119.12917 18080 ft 375 kts 302°
2026-05-05 00:08 33.99438 -119.15596 18632 ft 378 kts 302°
2026-05-05 00:08 34.01016 -119.18147 19164 ft 381 kts 312°
2026-05-05 00:08 34.02965 -119.20322 19693 ft 385 kts 323°
2026-05-05 00:09 34.05154 -119.22201 20223 ft 387 kts 324°
2026-05-05 00:09 34.07364 -119.24085 20747 ft 390 kts 324°
2026-05-05 00:09 34.09588 -119.25996 21260 ft 394 kts 324°
2026-05-05 00:09 34.11823 -119.27920 21768 ft 397 kts 324°
2026-05-05 00:10 34.14078 -119.29865 22259 ft 400 kts 324°
2026-05-05 00:10 34.16347 -119.31823 22732 ft 402 kts 324°
2026-05-05 00:10 34.18634 -119.33795 23193 ft 405 kts 324°
2026-05-05 00:10 34.20936 -119.35782 23633 ft 408 kts 324°
2026-05-05 00:11 34.23250 -119.37780 24061 ft 411 kts 324°
2026-05-05 00:11 34.25582 -119.39794 24476 ft 413 kts 324°
2026-05-05 00:11 34.27929 -119.41822 24882 ft 416 kts 324°
2026-05-05 00:11 34.30290 -119.43865 25283 ft 418 kts 324°
2026-05-05 00:12 34.32663 -119.45921 25666 ft 421 kts 324°
2026-05-05 00:12 34.35050 -119.47990 26044 ft 423 kts 324°
2026-05-05 00:12 34.37451 -119.50069 26413 ft 426 kts 324°
2026-05-05 00:12 34.39866 -119.52163 26774 ft 428 kts 323°
2026-05-05 00:13 34.42145 -119.54495 27119 ft 430 kts 315°
2026-05-05 00:13 34.44252 -119.57085 27433 ft 433 kts 314°
2026-05-05 00:13 34.46373 -119.59697 27753 ft 436 kts 314°
2026-05-05 00:13 34.48511 -119.62328 28018 ft 440 kts 314°
2026-05-05 00:14 34.50669 -119.64985 28321 ft 443 kts 314°
2026-05-05 00:14 34.52833 -119.67651 28660 ft 445 kts 314°
2026-05-05 00:14 34.55007 -119.70330 28987 ft 447 kts 314°
2026-05-05 00:14 34.57191 -119.73029 29263 ft 449 kts 314°
2026-05-05 00:15 34.59386 -119.75742 29558 ft 451 kts 314°
2026-05-05 00:15 34.61564 -119.78431 29802 ft 454 kts 314°
2026-05-05 00:15 34.63814 -119.81206 30122 ft 455 kts 314°
2026-05-05 00:15 34.66012 -119.83915 30385 ft 458 kts 314°
2026-05-05 00:16 34.68280 -119.86718 30664 ft 460 kts 314°
2026-05-05 00:16 34.70497 -119.89464 30916 ft 463 kts 314°
2026-05-05 00:16 34.72751 -119.92265 31199 ft 464 kts 314°
2026-05-05 00:16 34.75004 -119.95069 31590 ft 463 kts 314°
2026-05-05 00:17 34.77249 -119.97863 31997 ft 461 kts 314°
2026-05-05 00:17 34.79487 -120.00655 32379 ft 460 kts 314°
2026-05-05 00:17 34.81715 -120.03437 32768 ft 458 kts 314°
2026-05-05 00:17 34.83937 -120.06210 33107 ft 458 kts 314°
2026-05-05 00:18 34.86159 -120.08977 33484 ft 456 kts 314°
2026-05-05 00:18 34.88375 -120.11733 33815 ft 455 kts 314°
2026-05-05 00:18 34.90588 -120.14487 34166 ft 454 kts 314°
2026-05-05 00:18 34.92793 -120.17235 34494 ft 453 kts 314°
2026-05-05 00:19 34.94998 -120.19987 34782 ft 453 kts 314°
2026-05-05 00:19 34.97194 -120.22733 35101 ft 453 kts 314°
2026-05-05 00:19 34.99393 -120.25487 35398 ft 452 kts 314°
2026-05-05 00:19 35.01581 -120.28235 35702 ft 451 kts 314°
2026-05-05 00:20 35.03764 -120.30980 35954 ft 451 kts 314°
2026-05-05 00:20 35.08088 -120.36427 36008 ft 443 kts 314°
2026-05-05 00:21 35.12500 -120.41672 36008 ft 442 kts 317°
2026-05-05 00:21 35.17078 -120.46702 36010 ft 443 kts 318°
2026-05-05 00:22 35.21678 -120.51727 36009 ft 443 kts 317°
2026-05-05 00:22 35.26237 -120.56817 36012 ft 444 kts 317°
2026-05-05 00:23 35.30775 -120.61949 36019 ft 444 kts 317°
2026-05-05 00:23 35.35319 -120.67079 36024 ft 444 kts 317°
2026-05-05 00:24 35.39859 -120.72215 36019 ft 444 kts 317°
2026-05-05 00:24 35.44409 -120.77357 36021 ft 445 kts 317°
2026-05-05 00:25 35.49011 -120.82429 36026 ft 445 kts 322°
2026-05-05 00:25 35.53946 -120.87013 36029 ft 445 kts 323°
2026-05-05 00:26 35.58890 -120.91594 36026 ft 445 kts 322°
2026-05-05 00:26 35.63835 -120.96190 36029 ft 446 kts 322°
2026-05-05 00:27 35.68778 -121.00792 36030 ft 446 kts 322°
2026-05-05 00:27 35.73723 -121.05394 36032 ft 445 kts 322°
2026-05-05 00:28 35.78493 -121.09849 36033 ft 445 kts 322°
2026-05-05 00:28 35.80962 -121.12156 35838 ft 445 kts 322°
2026-05-05 00:28 35.83421 -121.14457 35556 ft 442 kts 322°
2026-05-05 00:28 35.85864 -121.16746 35070 ft 440 kts 322°
2026-05-05 00:29 35.88297 -121.19027 34589 ft 438 kts 322°
2026-05-05 00:29 35.90720 -121.21300 34084 ft 436 kts 322°
2026-05-05 00:29 35.93130 -121.23564 33605 ft 434 kts 322°
2026-05-05 00:29 35.95526 -121.25815 33127 ft 432 kts 322°
2026-05-05 00:30 35.97909 -121.28055 32648 ft 429 kts 322°
2026-05-05 00:30 36.00277 -121.30283 32164 ft 427 kts 322°
2026-05-05 00:30 36.02620 -121.32494 31688 ft 421 kts 322°
2026-05-05 00:30 36.04935 -121.34679 31221 ft 416 kts 322°
2026-05-05 00:31 36.07249 -121.36789 30759 ft 411 kts 327°
2026-05-05 00:31 36.09661 -121.38666 30312 ft 408 kts 328°
2026-05-05 00:31 36.12057 -121.40526 29858 ft 406 kts 327°
2026-05-05 00:31 36.14438 -121.42379 29429 ft 403 kts 327°
2026-05-05 00:32 36.16808 -121.44233 28988 ft 402 kts 327°
2026-05-05 00:32 36.19164 -121.46078 28566 ft 399 kts 327°
2026-05-05 00:32 36.21502 -121.47909 28144 ft 397 kts 327°
2026-05-05 00:32 36.23836 -121.49732 27727 ft 395 kts 327°
2026-05-05 00:33 36.26153 -121.51541 27320 ft 392 kts 327°
2026-05-05 00:33 36.28457 -121.53344 26910 ft 391 kts 327°
2026-05-05 00:33 36.30718 -121.55117 26508 ft 388 kts 327°
2026-05-05 00:33 36.32991 -121.56901 26106 ft 386 kts 327°
2026-05-05 00:34 36.35257 -121.58678 25685 ft 384 kts 327°
2026-05-05 00:34 36.37509 -121.60444 25269 ft 382 kts 327°
2026-05-05 00:34 36.39745 -121.62200 24859 ft 380 kts 327°
2026-05-05 00:34 36.41970 -121.63949 24424 ft 378 kts 327°
2026-05-05 00:35 36.44187 -121.65694 23998 ft 376 kts 327°
2026-05-05 00:35 36.46389 -121.67431 23561 ft 374 kts 327°
2026-05-05 00:35 36.48579 -121.69159 23127 ft 372 kts 327°
2026-05-05 00:35 36.50760 -121.70881 22688 ft 370 kts 327°
2026-05-05 00:36 36.52914 -121.72584 22249 ft 365 kts 327°
2026-05-05 00:36 36.55043 -121.74267 21815 ft 360 kts 327°
2026-05-05 00:36 36.57140 -121.75929 21386 ft 355 kts 327°
2026-05-05 00:36 36.59210 -121.77569 20963 ft 350 kts 327°
2026-05-05 00:37 36.61255 -121.79187 20541 ft 346 kts 327°
2026-05-05 00:37 36.63272 -121.80783 20114 ft 341 kts 327°
2026-05-05 00:37 36.65261 -121.82358 19712 ft 337 kts 327°
2026-05-05 00:37 36.67221 -121.83914 19302 ft 332 kts 327°
2026-05-05 00:38 36.69157 -121.85451 18906 ft 328 kts 327°
2026-05-05 00:38 36.71070 -121.86969 18509 ft 324 kts 327°
2026-05-05 00:38 36.72973 -121.88443 18085 ft 321 kts 331°
2026-05-05 00:38 36.75001 -121.89560 17682 ft 317 kts 341°
2026-05-05 00:39 36.77123 -121.90248 17289 ft 314 kts 347°
2026-05-05 00:39 36.79242 -121.90830 16908 ft 310 kts 347°
2026-05-05 00:39 36.81370 -121.91419 16519 ft 319 kts 347°
2026-05-05 00:39 36.83551 -121.92024 16098 ft 322 kts 347°
2026-05-05 00:40 36.85738 -121.92627 15665 ft 321 kts 347°
2026-05-05 00:40 36.87917 -121.93226 15241 ft 319 kts 347°
2026-05-05 00:40 36.90077 -121.93820 14817 ft 317 kts 347°
2026-05-05 00:40 36.92227 -121.94411 14395 ft 315 kts 347°
2026-05-05 00:41 36.94362 -121.94998 13981 ft 313 kts 347°
2026-05-05 00:41 36.96483 -121.95581 13563 ft 311 kts 347°
2026-05-05 00:41 36.98590 -121.96160 13153 ft 309 kts 347°
2026-05-05 00:41 37.00687 -121.96736 12744 ft 308 kts 347°
2026-05-05 00:42 37.02780 -121.97311 12335 ft 308 kts 347°
2026-05-05 00:42 37.04870 -121.97885 11926 ft 307 kts 347°
2026-05-05 00:42 37.06957 -121.98448 11523 ft 306 kts 347°
2026-05-05 00:42 37.09039 -121.99004 11127 ft 305 kts 347°
2026-05-05 00:43 37.10410 -121.99369 10861 ft 305 kts 347°
2026-05-05 00:43 37.12483 -121.99920 10456 ft 304 kts 347°
2026-05-05 00:43 37.15220 -122.00648 9911 ft 296 kts 347°
2026-05-05 00:43 37.17200 -122.01238 9506 ft 290 kts 343°
2026-05-05 00:44 37.19086 -122.01989 9118 ft 288 kts 341°
2026-05-05 00:44 37.20982 -122.02805 8716 ft 288 kts 340°
2026-05-05 00:44 37.22868 -122.03663 8312 ft 289 kts 339°
2026-05-05 00:44 37.24749 -122.04545 7915 ft 288 kts 340°
2026-05-05 00:45 37.26646 -122.05374 7512 ft 289 kts 340°
2026-05-05 00:45 37.28546 -122.06198 7113 ft 289 kts 340°
2026-05-05 00:45 37.30441 -122.07030 6710 ft 288 kts 340°
2026-05-05 00:45 37.32337 -122.07869 6311 ft 288 kts 340°
2026-05-05 00:46 37.34224 -122.08704 5911 ft 288 kts 340°
2026-05-05 00:46 37.36111 -122.09537 5509 ft 287 kts 340°
2026-05-05 00:46 37.37990 -122.10369 5103 ft 284 kts 340°
2026-05-05 00:46 37.39830 -122.11182 4700 ft 277 kts 340°
2026-05-05 00:47 37.41626 -122.11974 4299 ft 271 kts 340°
2026-05-05 00:47 37.43387 -122.12751 3896 ft 265 kts 340°
2026-05-05 00:47 37.45121 -122.13517 3503 ft 264 kts 340°
2026-05-05 00:47 37.46861 -122.14287 3098 ft 266 kts 340°
2026-05-05 00:48 37.48581 -122.15050 2947 ft 257 kts 340°
2026-05-05 00:48 37.50216 -122.15778 2955 ft 241 kts 340°
2026-05-05 00:48 37.51241 -122.16235 2962 ft 232 kts 340°
2026-05-05 00:48 37.53182 -122.17327 2967 ft 228 kts 322°
2026-05-05 00:49 37.54237 -122.18804 2905 ft 228 kts 299°
2026-05-05 00:49 37.54986 -122.20558 2675 ft 225 kts 297°
2026-05-05 00:49 37.55712 -122.22306 2391 ft 225 kts 297°
2026-05-05 00:49 37.56197 -122.23462 2192 ft 225 kts 297°
2026-05-05 00:50 37.56928 -122.25196 1889 ft 221 kts 297°
2026-05-05 00:50 37.57626 -122.26853 1630 ft 206 kts 297°
2026-05-05 00:50 37.58268 -122.28375 1355 ft 187 kts 297°
2026-05-05 00:50 37.58852 -122.29764 1115 ft 170 kts 297°
2026-05-05 00:51 37.59380 -122.31019 909 ft 154 kts 297°
2026-05-05 00:51 37.59869 -122.32181 690 ft 147 kts 297°
2026-05-05 00:51 37.60342 -122.33306 503 ft 144 kts 297°
2026-05-05 00:51 37.60810 -122.34420 314 ft 143 kts 297°
2026-05-05 00:52 37.61273 -122.35522 122 ft 142 kts 297°
2026-05-05 00:52 37.61713 -122.36570 19 ft 104 kts 298°
2026-05-05 00:52 37.61922 -122.37078 16 ft 42 kts 296°
2026-05-05 00:52 37.62028 -122.37360 18 ft 29 kts 296°
2026-05-05 00:53 37.62105 -122.37564 18 ft 25 kts 296°
2026-05-05 00:53 37.62107 -122.37727 23 ft 11 kts 215°
2026-05-05 00:53 37.62085 -122.37756 21 ft 0 kts 229°
2026-05-05 00:54 37.62080 -122.37763 22 ft 3 kts 229°
2026-05-05 00:54 37.62059 -122.37794 22 ft 6 kts 230°
2026-05-05 00:54 37.62023 -122.37848 23 ft 10 kts 230°
2026-05-05 00:55 37.61970 -122.37925 22 ft 14 kts 234°
2026-05-05 00:55 37.61972 -122.38048 21 ft 17 kts 297°
2026-05-05 00:55 37.62027 -122.38174 23 ft 14 kts 297°
2026-05-05 00:55 37.62078 -122.38293 23 ft 17 kts 299°
2026-05-05 00:56 37.62140 -122.38443 21 ft 22 kts 297°
2026-05-05 00:56 37.62217 -122.38625 19 ft 26 kts 297°
2026-05-05 00:56 37.62289 -122.38797 16 ft 17 kts 298°
2026-05-05 00:56 37.62327 -122.38896 16 ft 13 kts 287°
2026-05-05 00:57 37.62291 -122.38981 17 ft 9 kts 214°
2026-05-05 00:57 37.62241 -122.39046 18 ft 12 kts 243°
2026-05-05 00:57 37.62185 -122.39133 16 ft 15 kts 211°
2026-05-05 00:57 37.62084 -122.39199 16 ft 17 kts 202°
2026-05-05 00:58 37.62006 -122.39250 19 ft 9 kts 210°
2026-05-05 00:58 37.61958 -122.39302 19 ft 10 kts 208°
2026-05-05 00:58 37.61916 -122.39328 19 ft 0 kts 209°